{"data":{"norad_id":64668,"epoch":"2026-05-25T02:37:35.160672Z","epoch_age_seconds":59373,"freshness":"FRESH","line1":"1 64668U 25139E   26145.10943473  .00018568  00000+0  55936-3 0  9997","line2":"2 64668  53.1580 131.4191 0001063  43.1637 316.9448 15.34396902 51999","mean_motion":15.34396902,"eccentricity":0.0001063,"inclination_deg":53.158,"raan_deg":131.4191,"arg_perigee_deg":43.1637,"mean_anomaly_deg":316.9448,"bstar":0.00055936,"rev_number":5199,"period_min":93.847947563179,"perigee_km":461.98526583514,"apogee_km":463.43963042781,"semimajor_km":6840.8494481315,"source":"CELESTRAK","updated_at":"2026-05-25T13:38:20.501843Z"}}